Location: Phoenix
(33.4480°N, 112.0730°W)
Time: 11:04:07
(UTC-07:00)

ISS - All Passes

Search period start: 01 March 2017 00:00
Search period end: 11 March 2017 00:00
Orbit: 400 x 410 km, 51.6° (Epoch: 02 March)

Date Brightness Start Highest point End Pass type
(mag) Time Alt. Az. Time Alt. Az. Time Alt. Az.
01 Mar - 05:34:20 10° SSW 05:37:15 30° SE 05:40:11 10° ENE visible
01 Mar - 07:11:08 10° W 07:13:44 21° NW 07:16:22 10° NNE daylight
01 Mar - 13:41:20 10° NW 13:44:36 64° NE 13:47:50 10° SE daylight
02 Mar - 04:43:24 10° SSE 04:45:14 14° SE 04:47:06 10° E visible
02 Mar - 06:18:19 10° WSW 06:21:26 39° NW 06:24:35 10° NNE visible
02 Mar - 12:49:23 10° NNW 12:52:21 30° NE 12:55:18 10° ESE daylight
02 Mar - 14:26:17 10° W 14:28:39 18° SW 14:31:00 10° S daylight
03 Mar - 05:25:56 10° SW 05:29:13 87° NW 05:32:31 10° NE visible
03 Mar - 07:05:08 10° NW 07:06:08 11° NNW 07:07:08 10° N daylight
03 Mar - 11:57:41 10° NNW 11:59:59 18° NNE 12:02:18 10° ENE daylight
03 Mar - 13:33:29 10° WNW 13:36:36 40° SW 13:39:40 10° SSE daylight
04 Mar - 04:33:59 10° SSW 04:37:05 40° SE 04:40:11 10° ENE visible
04 Mar - 06:11:20 10° WNW 06:13:40 18° NNW 06:16:01 10° NNE visible
04 Mar - 11:06:35 10° N 11:07:32 11° NNE 11:08:29 10° NE daylight
04 Mar - 12:41:09 10° NW 12:44:27 86° NE 12:47:43 10° SE daylight
05 Mar - 03:42:38 10° S 03:44:59 18° SE 03:47:23 10° E visible
05 Mar - 05:18:20 10° WSW 05:21:18 31° NW 05:24:17 10° NNE visible
05 Mar - 11:49:05 10° NNW 11:52:12 39° NE 11:55:18 10° ESE daylight
05 Mar - 13:26:34 10° W 13:28:24 14° SW 13:30:14 10° SSW daylight
06 Mar - 04:25:45 10° SW 04:29:00 65° NW 04:32:18 10° NE visible
06 Mar - 10:57:14 10° NNW 10:59:51 21° NE 11:02:27 10° E daylight
06 Mar - 12:33:24 10° WNW 12:36:20 30° SW 12:39:15 10° SSE daylight
07 Mar - 03:33:35 10° SSW 03:36:47 54° SE 03:40:02 10° NE visible
07 Mar - 05:11:32 10° WNW 05:13:30 15° NNW 05:15:29 10° N visible
07 Mar - 10:05:47 10° N 10:07:23 13° NNE 10:08:59 10° ENE daylight
07 Mar - 11:40:54 10° NW 11:44:11 70° SW 11:47:26 10° SE daylight
08 Mar - 02:41:57 10° S 02:44:39 24° SE 02:47:22 10° ENE night (unlit)
08 Mar - 04:18:16 10° W 04:21:04 25° NW 04:23:51 10° NNE visible
08 Mar - 10:48:42 10° NW 10:51:56 51° NE 10:55:08 10° ESE daylight
08 Mar - 12:27:09 10° WSW 12:28:02 11° SW 12:28:54 10° SW daylight
09 Mar - 01:51:28 10° SE 01:52:35 11° SE 01:53:42 10° ESE night (unlit)
09 Mar - 03:25:30 10° WSW 03:28:42 48° NW 03:31:55 10° NE night (unlit)
09 Mar - 09:56:44 10° NNW 09:59:34 26° NE 10:02:23 10° E daylight
09 Mar - 11:33:17 10° WNW 11:35:57 23° SW 11:38:37 10° S daylight
10 Mar - 02:33:09 10° SW 02:36:25 74° SE 02:39:42 10° NE night (unlit)
10 Mar - 04:11:43 10° WNW 04:13:14 13° NNW 04:14:45 10° N visible
10 Mar - 09:05:03 10° N 09:07:06 15° NNE 09:09:08 10° ENE daylight
10 Mar - 10:40:34 10° NW 10:43:47 51° SW 10:46:58 10° SSE daylight
